Location: ????????
(60.4333°N, 46.4710°E)
Time: 18:33:13
(UTC+00:00)

Cosmos 2278 Rocket - Pass Details

Date: 25 November 2020
Orbit: 839 x 847 km, 71.0° (Epoch: 16 January)

Event Time Altitude Azimuth Distance (km) Brightness Sun altitude
Rises 13:30:34 0° 320° (NW) 3,417 5.6 -9.8°
Reaches altitude 10° 13:33:03 10° 317° (NW) 2,479 4.9 -10.1°
Maximum altitude 13:38:37 58° 240° (WSW) 983 2.9 -10.7°
Drops below altitude 10° 13:44:10 10° 162° (SSE) 2,470 4.7 -11.3°
Sets 13:46:38 0° 159° (SSE) 3,402 5.4 -11.6°
